N5CSU Weather Reports


time (UTC)temp
C
wind
direction
speed
KPH
gust
KPH
rain 1hr
cm
rain 24hr
cm
rain mn
cm
humidity
%
barometer
mb
20260906085009 26 192 0.0 0.0 0.00 0.00 0.00 87 1012.5
20260906084504 26 192 0.0 0.0 0.00 0.00 0.00 87 1012.6
20260906084003 26 192 0.0 0.0 0.00 0.00 0.00 87 1012.7
20260906083459 26 192 0.0 0.0 0.00 0.00 0.00 87 1012.7
20260906082958 26 191 0.0 0.0 0.00 0.00 0.00 86 1012.7
20260906082454 26 191 0.0 0.0 0.00 0.00 0.00 86 1012.6
20260906081949 26 192 0.0 0.0 0.00 0.00 0.00 86 1012.8
20260906081444 26 192 0.0 0.0 0.00 0.00 0.00 86 1012.9
20260906080940 26 191 0.0 0.0 0.00 0.00 0.00 86 1012.9
20260906080436 26 191 0.0 0.0 0.00 0.00 0.00 86 1012.9
20260906075931 26 191 0.0 0.0 0.00 0.00 0.00 86 1012.8
20260906075426 26 191 0.0 0.0 0.00 0.00 0.00 85 1012.9
20260906074921 26 191 0.0 0.0 0.00 0.00 0.00 85 1012.9
20260906074420 26 191 0.0 0.0 0.00 0.00 0.00 85 1012.9
20260906073919 26 191 0.0 0.0 0.00 0.00 0.00 85 1013.1
20260906073409 26 191 0.0 0.0 0.00 0.00 0.00 84 1012.9
20260906072906 26 191 0.0 0.0 0.00 0.00 0.00 84 1013.0
20260906072401 26 191 0.0 0.0 0.00 0.00 0.00 84 1013.0
20260906071856 27 191 0.0 0.0 0.00 0.00 0.00 84 1013.0
20260906071352 27 190 0.0 0.0 0.00 0.00 0.00 83 1013.0
20260906070847 27 190 0.0 0.0 0.00 0.00 0.00 83 1012.9
20260906070343 27 184 0.0 0.0 0.00 0.00 0.00 82 1012.8
20260906065839 27 193 0.0 0.0 0.00 0.00 0.00 82 1012.8
20260906065333 27 193 0.0 0.0 0.00 0.00 0.00 82 1012.9
20260906064828 27 187 0.0 0.0 0.00 0.00 0.00 81 1012.9
20260906064325 27 197 0.0 0.0 0.00 0.00 0.00 81 1012.9
20260906063819 27 199 0.0 0.0 0.00 0.00 0.00 81 1012.9
20260906063315 27 190 0.0 0.0 0.00 0.00 0.00 80 1013.1
20260906062810 27 193 0.0 0.0 0.00 0.00 0.00 80 1013.1
20260906062309 27 205 0.0 0.0 0.00 0.00 0.00 80 1013.0
20260906061804 27 202 0.0 0.0 0.00 0.00 0.00 80 1013.2
20260906061301 27 191 0.0 0.0 0.00 0.00 0.00 80 1013.3
20260906060801 27 204 0.0 0.0 0.00 0.00 0.00 79 1013.2
20260906060259 27 200 0.0 0.0 0.00 0.00 0.00 79 1013.4
20260906055754 27 200 0.0 0.0 0.00 0.00 0.00 78 1013.3
20260906055249 28 206 0.0 0.0 0.00 0.00 0.00 78 1013.3
20260906054744 28 185 0.0 0.0 0.00 0.00 0.00 77 1013.2
20260906054240 28 183 0.0 0.0 0.00 0.00 0.00 77 1013.2
20260906053736 28 198 0.0 0.0 0.00 0.00 0.00 77 1013.2
20260906053232 28 220 0.0 0.0 0.00 0.00 0.00 77 1013.2
20260906052727 28 200 0.0 0.0 0.00 0.00 0.00 76 1013.2
20260906052223 28 198 0.0 0.0 0.00 0.00 0.00 76 1013.1
20260906051720 28 206 0.0 0.0 0.00 0.00 0.00 76 1013.3
20260906051219 28 195 0.0 0.0 0.00 0.00 0.00 75 1013.1
20260906050714 28 232 0.0 0.0 0.00 0.00 0.00 75 1013.2
20260906050209 28 191 0.0 0.0 0.00 0.00 0.00 75 1013.2
20260906045708 28 200 0.0 0.0 0.00 0.00 0.00 74 1013.1
20260906045202 28 198 0.0 0.0 0.00 0.00 0.00 74 1013.0
20260906044659 28 205 0.0 0.0 0.00 0.00 0.00 73 1012.9
20260906044154 28 206 0.0 0.0 0.00 0.00 0.00 73 1013.0
20260906043650 28 207 0.0 0.0 0.00 0.00 0.00 73 1012.7
20260906043145 28 191 0.0 0.0 0.00 0.00 0.00 72 1013.1
20260906042640 28 200 0.0 0.0 0.00 0.00 0.00 72 1013.1
20260906042139 28 201 0.0 0.0 0.00 0.00 0.00 71 1013.0
20260906041629 29 211 0.0 0.0 0.00 0.00 0.00 71 1013.0
20260906041124 29 207 0.0 0.0 0.00 0.00 0.00 70 1013.0
20260906040620 29 205 0.0 0.0 0.00 0.00 0.00 71 1013.1
20260906040115 29 193 0.0 0.0 0.00 0.00 0.00 71 1013.2
20260906035610 29 194 0.0 0.0 0.00 0.00 0.00 71 1013.3
20260906035106 29 193 0.0 0.0 0.00 0.00 0.00 71 1013.2
20260906034606 29 200 0.0 0.0 0.00 0.00 0.00 71 1013.0
20260906034101 29 210 0.0 0.0 0.00 0.00 0.00 71 1013.0
20260906033556 29 206 0.0 0.0 0.00 0.00 0.00 71 1013.1
20260906033051 29 193 0.0 0.0 0.00 0.00 0.00 71 1013.3
20260906032548 29 184 0.0 0.0 0.00 0.00 0.00 70 1013.0
20260906032047 30 191 0.0 0.0 0.00 0.00 0.00 70 1012.9
20260906031543 30 204 0.0 0.0 0.00 0.00 0.00 70 1013.0
20260906031038 30 192 0.0 0.0 0.00 0.00 0.00 70 1013.1
20260906030538 30 188 0.0 0.0 0.00 0.00 0.00 69 1013.0
20260906030037 30 201 0.0 0.0 0.00 0.00 0.00 69 1013.1
20260906025532 30 225 0.0 0.0 0.00 0.00 0.00 69 1013.0
20260906025030 30 187 0.0 0.0 0.00 0.00 0.00 68 1013.1
20260906024525 30 188 0.0 0.0 0.00 0.00 0.00 68 1013.0
20260906024019 30 191 0.0 0.0 0.00 0.00 0.00 68 1012.8
20260906023516 30 193 0.0 0.0 0.00 0.00 0.00 67 1012.9
20260906023010 30 201 0.0 0.0 0.00 0.00 0.00 66 1012.9
20260906022506 30 173 0.0 0.0 0.00 0.00 0.00 66 1012.9
20260906022001 30 28 1.6 1.6 0.00 0.00 0.00 65 1012.8
20260906021455 30 185 0.0 0.0 0.00 0.00 0.00 65 1012.7
20260906020950 30 175 0.0 0.0 0.00 0.00 0.00 65 1012.3
20260906020444 30 168 0.0 0.0 0.00 0.00 0.00 64 1012.4
20260906015938 31 204 0.0 0.0 0.00 0.00 0.00 63 1012.3
20260906015432 31 179 0.0 0.0 0.00 0.00 0.00 63 1012.2
20260906014926 31 198 0.0 0.0 0.00 0.00 0.00 63 1012.3
20260906014426 31 240 1.6 1.6 0.00 0.00 0.00 62 1012.2
20260906013922 31 173 0.0 1.6 0.00 0.00 0.00 62 1012.1
20260906013417 31 205 0.0 0.0 0.00 0.00 0.00 61 1012.0
20260906012913 31 196 0.0 0.0 0.00 0.00 0.00 61 1011.9
20260906012408 31 114 0.0 0.0 0.00 0.00 0.00 61 1011.7
20260906011907 31 199 0.0 0.0 0.00 0.00 0.00 60 1011.7
20260906011402 31 198 0.0 0.0 0.00 0.00 0.00 60 1011.7
20260906010858 31 200 0.0 0.0 0.00 0.00 0.00 60 1011.6
20260906010354 31 198 0.0 0.0 0.00 0.00 0.00 59 1011.5
20260906005849 32 195 1.6 3.2 0.00 0.00 0.00 58 1011.5
20260906005348 32 184 0.0 0.0 0.00 0.00 0.00 57 1011.5
20260906004847 32 205 0.0 0.0 0.00 0.00 0.00 57 1011.6
20260906004342 32 187 0.0 0.0 0.00 0.00 0.00 56 1011.7
20260906003837 33 183 1.6 1.6 0.00 0.00 0.00 55 1011.4
20260906003332 33 207 0.0 0.0 0.00 0.00 0.00 53 1011.3
20260906002828 33 203 1.6 1.6 0.00 0.00 0.00 52 1011.4
20260906002327 34 192 4.8 12.9 0.00 0.00 0.00 51 1011.3
20260906001823 34 190 0.0 0.0 0.00 0.00 0.00 51 1011.4
20260906001318 34 193 0.0 0.0 0.00 0.00 0.00 51 1011.2
20260906000813 35 169 1.6 1.6 0.00 0.00 0.00 51 1011.1
20260906000308 35 169 3.2 3.2 0.00 0.00 0.00 50 1011.0
20260905235803 35 190 0.0 1.6 0.00 0.00 0.00 48 1011.0
20260905235306 35 192 0.0 0.0 0.00 0.00 0.00 47 1011.1
20260905234758 35 196 0.0 0.0 0.00 0.00 0.00 46 1010.9
20260905234253 35 191 0.0 0.0 0.00 0.00 0.00 45 1010.8
20260905233749 36 198 0.0 0.0 0.00 0.00 0.00 45 1010.8
20260905233248 36 176 0.0 0.0 0.00 0.00 0.00 45 1010.7
20260905232748 36 180 0.0 1.6 0.00 0.00 0.00 45 1010.7
20260905232244 36 204 0.0 0.0 0.00 0.00 0.00 44 1010.6
20260905231739 36 190 0.0 0.0 0.00 0.00 0.00 44 1010.7
20260905231234 36 207 0.0 0.0 0.00 0.00 0.00 44 1010.9
20260905230731 36 189 0.0 0.0 0.00 0.00 0.00 43 1010.8
20260905230228 36 180 0.0 0.0 0.00 0.00 0.00 45 1010.8
20260905225727 36 191 0.0 0.0 0.00 0.00 0.00 44 1010.7
20260905225223 36 192 0.0 0.0 0.00 0.00 0.00 44 1010.7
20260905224722 36 197 0.0 0.0 0.00 0.00 0.00 45 1010.6
20260905224217 36 193 0.0 0.0 0.00 0.00 0.00 46 1010.7
20260905223714 36 186 0.0 0.0 0.00 0.00 0.00 45 1010.8
20260905223210 35 195 0.0 0.0 0.00 0.00 0.00 46 1010.7
20260905222706 35 192 0.0 0.0 0.00 0.00 0.00 46 1010.6
20260905222205 36 181 0.0 0.0 0.00 0.00 0.00 46 1010.6
20260905221700 36 193 0.0 0.0 0.00 0.00 0.00 45 1010.6
20260905221157 36 201 0.0 1.6 0.00 0.00 0.00 45 1010.8
20260905220653 36 178 0.0 0.0 0.00 0.00 0.00 44 1011.0
20260905220149 37 189 0.0 0.0 0.00 0.00 0.00 43 1010.8
20260905215643 37 208 0.0 0.0 0.00 0.00 0.00 43 1010.8
20260905215139 37 173 0.0 0.0 0.00 0.00 0.00 42 1010.8
20260905214635 37 199 0.0 0.0 0.00 0.00 0.00 42 1010.9
20260905214135 37 219 0.0 0.0 0.00 0.00 0.00 42 1010.9
20260905213630 37 200 0.0 0.0 0.00 0.00 0.00 42 1011.1
20260905213125 37 196 0.0 0.0 0.00 0.00 0.00 42 1011.1
20260905212620 37 9 0.0 1.6 0.00 0.00 0.00 42 1011.1
20260905212120 37 184 1.6 3.2 0.00 0.00 0.00 42 1011.1
20260905211615 37 190 1.6 1.6 0.00 0.00 0.00 42 1011.1
20260905211110 37 190 0.0 0.0 0.00 0.00 0.00 42 1011.2
20260905210607 37 187 3.2 3.2 0.00 0.00 0.00 42 1011.1
20260905210056 37 208 0.0 0.0 0.00 0.00 0.00 41 1011.3
20260905205555 36 209 1.6 1.6 0.00 0.00 0.00 42 1011.6
20260905205054 36 188 0.0 0.0 0.00 0.00 0.00 44 1011.4
20260905204549 36 194 0.0 0.0 0.00 0.00 0.00 44 1011.4
20260905204044 35 159 1.6 1.6 0.00 0.00 0.00 45 1011.6
20260905203544 35 200 0.0 0.0 0.00 0.00 0.00 45 1011.7
20260905203039 35 186 0.0 1.6 0.00 0.00 0.00 45 1011.8
20260905202534 36 195 0.0 0.0 0.00 0.00 0.00 46 1011.9
20260905202030 36 193 0.0 0.0 0.00 0.00 0.00 44 1011.9
20260905201526 36 194 0.0 0.0 0.00 0.00 0.00 43 1011.9
20260905201025 36 199 1.6 1.6 0.00 0.00 0.00 43 1011.8
20260905200520 36 18 3.2 4.8 0.00 0.00 0.00 44 1012.1
20260905200015 36 198 0.0 0.0 0.00 0.00 0.00 43 1012.1
20260905195509 36 184 1.6 1.6 0.00 0.00 0.00 44 1012.1
20260905195004 36 208 0.0 0.0 0.00 0.00 0.00 44 1012.4
20260905194504 36 130 0.0 0.0 0.00 0.00 0.00 44 1012.5
20260905194004 36 204 0.0 0.0 0.00 0.00 0.00 44 1012.3
20260905193504 36 188 0.0 1.6 0.00 0.00 0.00 46 1012.6
20260905192959 36 115 0.0 0.0 0.00 0.00 0.00 46 1012.7
20260905192454 35 175 3.2 3.2 0.00 0.00 0.00 45 1012.8
20260905191951 35 156 1.6 3.2 0.00 0.00 0.00 45 1013.0
20260905191450 35 198 0.0 0.0 0.00 0.00 0.00 47 1013.0
20260905190949 35 202 0.0 0.0 0.00 0.00 0.00 46 1013.2
20260905190447 35 189 0.0 0.0 0.00 0.00 0.00 46 1013.2
20260905185946 35 189 0.0 0.0 0.00 0.00 0.00 47 1013.1
20260905185441 35 185 0.0 0.0 0.00 0.00 0.00 48 1013.4
20260905184940 35 185 0.0 0.0 0.00 0.00 0.00 47 1013.3
20260905184440 35 201 0.0 0.0 0.00 0.00 0.00 46 1013.5
20260905183938 35 191 0.0 0.0 0.00 0.00 0.00 46 1013.5
20260905183433 36 206 0.0 0.0 0.00 0.00 0.00 44 1013.6
20260905182929 36 207 0.0 0.0 0.00 0.00 0.00 43 1013.7
20260905182427 36 45 3.2 3.2 0.00 0.00 0.00 42 1013.9
20260905181923 36 196 0.0 0.0 0.00 0.00 0.00 43 1013.7
20260905181418 36 180 1.6 1.6 0.00 0.00 0.00 44 1014.0
20260905180917 36 188 1.6 1.6 0.00 0.00 0.00 43 1014.0
20260905180412 36 88 1.6 1.6 0.00 0.00 0.00 44 1014.2
20260905175907 35 241 1.6 1.6 0.00 0.00 0.00 45 1014.1
20260905175406 35 204 1.6 1.6 0.00 0.00 0.00 46 1014.2
20260905174901 36 21 3.2 3.2 0.00 0.00 0.00 45 1014.3
20260905174358 36 206 0.0 1.6 0.00 0.00 0.00 45 1014.3
20260905173853 36 195 0.0 1.6 0.00 0.00 0.00 47 1014.5
20260905173349 35 206 0.0 1.6 0.00 0.00 0.00 46 1014.6
20260905172844 35 172 1.6 1.6 0.00 0.00 0.00 47 1014.5
20260905172342 35 204 0.0 0.0 0.00 0.00 0.00 48 1014.7
20260905171838 35 281 0.0 1.6 0.00 0.00 0.00 47 1014.6
20260905171335 35 202 0.0 0.0 0.00 0.00 0.00 50 1014.8
20260905170831 35 205 0.0 0.0 0.00 0.00 0.00 48 1014.8
20260905170327 35 204 0.0 0.0 0.00 0.00 0.00 50 1014.7
20260905165826 35 201 0.0 0.0 0.00 0.00 0.00 51 1015.0
20260905165321 35 200 0.0 0.0 0.00 0.00 0.00 50 1014.9
20260905164821 35 175 1.6 1.6 0.00 0.00 0.00 50 1014.9
20260905164315 34 198 0.0 0.0 0.00 0.00 0.00 51 1014.9
20260905163811 35 59 1.6 1.6 0.00 0.00 0.00 49 1015.1
20260905163307 34 200 0.0 0.0 0.00 0.00 0.00 51 1015.0
20260905162803 34 209 0.0 1.6 0.00 0.00 0.00 52 1015.0
20260905162305 34 201 0.0 1.6 0.00 0.00 0.00 53 1015.1
20260905161757 34 196 0.0 0.0 0.00 0.00 0.00 52 1015.0
20260905161256 33 188 1.6 3.2 0.00 0.00 0.00 54 1015.0
20260905160754 33 144 1.6 1.6 0.00 0.00 0.00 55 1015.1
20260905160249 33 220 0.0 0.0 0.00 0.00 0.00 55 1015.2
20260905155744 32 228 0.0 0.0 0.00 0.00 0.00 53 1015.1
20260905155243 32 196 0.0 1.6 0.00 0.00 0.00 59 1015.0
20260905154737 32 187 0.0 0.0 0.00 0.00 0.00 60 1014.9
20260905154233 31 155 0.0 0.0 0.00 0.00 0.00 64 1014.9
20260905153728 31 184 0.0 0.0 0.00 0.00 0.00 64 1014.8
20260905153224 31 185 0.0 0.0 0.00 0.00 0.00 66 1015.1
20260905152719 31 180 0.0 0.0 0.00 0.00 0.00 67 1015.1
20260905152213 31 196 0.0 0.0 0.00 0.00 0.00 68 1015.0
20260905151713 31 181 0.0 0.0 0.00 0.00 0.00 68 1015.1
20260905151209 30 195 0.0 0.0 0.00 0.00 0.00 69 1015.1
20260905150704 30 196 0.0 0.0 0.00 0.00 0.00 71 1014.8
20260905150203 30 194 0.0 0.0 0.00 0.00 0.00 71 1014.8
20260905145701 30 186 0.0 0.0 0.00 0.00 0.00 71 1014.9
20260905145201 30 194 0.0 0.0 0.00 0.00 0.00 72 1014.8
20260905144655 30 187 0.0 0.0 0.00 0.00 0.00 72 1014.8
20260905144154 29 196 0.0 0.0 0.00 0.00 0.00 74 1014.7
20260905143648 29 186 0.0 0.0 0.00 0.00 0.00 73 1015.0
20260905143143 28 214 0.0 0.0 0.00 0.00 0.00 74 1014.8
20260905142642 28 188 0.0 0.0 0.00 0.00 0.00 76 1014.9
20260905142137 28 210 0.0 0.0 0.00 0.00 0.00 76 1014.9
20260905141636 28 205 0.0 0.0 0.00 0.00 0.00 78 1014.8
20260905141133 28 186 0.0 0.0 0.00 0.00 0.00 77 1014.9
20260905140627 28 203 0.0 0.0 0.00 0.00 0.00 78 1014.8
20260905140127 27 179 0.0 0.0 0.00 0.00 0.00 78 1014.9
20260905135622 27 184 0.0 0.0 0.00 0.00 0.00 79 1015.0
20260905135117 27 185 0.0 0.0 0.00 0.00 0.00 78 1014.8
20260905134612 27 185 0.0 1.6 0.00 0.00 0.00 80 1014.9
20260905134110 26 186 0.0 0.0 0.00 0.00 0.00 82 1014.8
20260905133607 26 208 0.0 0.0 0.00 0.00 0.00 84 1014.9
20260905133106 26 211 0.0 0.0 0.00 0.00 0.00 83 1014.6
20260905132606 26 205 0.0 0.0 0.00 0.00 0.00 86 1014.6
20260905132100 25 204 0.0 0.0 0.00 0.00 0.00 86 1014.5
20260905131556 25 204 0.0 0.0 0.00 0.00 0.00 87 1014.5
20260905131051 25 205 0.0 0.0 0.00 0.00 0.00 88 1014.4
20260905130550 25 205 0.0 0.0 0.00 0.00 0.00 89 1014.5
20260905130046 25 205 0.0 0.0 0.00 0.00 0.00 89 1014.2
20260905125545 24 205 0.0 0.0 0.00 0.00 0.00 90 1014.3
20260905125041 24 208 0.0 0.0 0.00 0.00 0.00 90 1014.2
20260905124537 24 208 0.0 0.0 0.00 0.00 0.00 90 1014.1
20260905124033 24 208 0.0 0.0 0.00 0.00 0.00 90 1014.3
20260905123528 23 208 0.0 0.0 0.00 0.00 0.00 90 1014.2
20260905123026 23 208 0.0 0.0 0.00 0.00 0.00 90 1014.1
20260905122525 23 208 0.0 0.0 0.00 0.00 0.00 90 1014.2
20260905122020 23 208 0.0 0.0 0.00 0.00 0.00 90 1014.2
20260905121514 23 208 0.0 0.0 0.00 0.00 0.00 90 1014.2
20260905121009 23 208 0.0 0.0 0.00 0.00 0.00 90 1014.1
20260905120503 23 208 0.0 0.0 0.00 0.00 0.00 90 1014.4
20260905115958 23 208 0.0 0.0 0.00 0.00 0.00 90 1014.3
20260905115457 23 208 0.0 0.0 0.00 0.00 0.00 90 1014.2
20260905114952 23 208 0.0 0.0 0.00 0.00 0.00 90 1014.2
20260905114451 23 208 0.0 0.0 0.00 0.00 0.00 90 1014.1
20260905113950 24 208 0.0 0.0 0.00 0.00 0.00 90 1014.1
20260905113446 23 209 0.0 0.0 0.00 0.00 0.00 90 1014.1
20260905112941 23 209 0.0 0.0 0.00 0.00 0.00 89 1014.0
20260905112436 24 209 0.0 0.0 0.00 0.00 0.00 90 1014.3
20260905111931 24 209 0.0 0.0 0.00 0.00 0.00 89 1014.0
20260905111425 24 208 0.0 0.0 0.00 0.00 0.00 89 1014.0
20260905110920 24 208 0.0 0.0 0.00 0.00 0.00 89 1014.0
20260905110414 24 208 0.0 0.0 0.00 0.00 0.00 89 1014.0
20260905105909 24 208 0.0 0.0 0.00 0.00 0.00 88 1014.0
20260905105409 24 208 0.0 0.0 0.00 0.00 0.00 88 1014.1
20260905104908 24 208 0.0 0.0 0.00 0.00 0.00 88 1013.8
20260905104404 24 208 0.0 0.0 0.00 0.00 0.00 88 1013.9
20260905103859 24 208 0.0 0.0 0.00 0.00 0.00 88 1013.8
20260905103354 25 208 0.0 0.0 0.00 0.00 0.00 88 1013.8
20260905102850 25 208 0.0 0.0 0.00 0.00 0.00 87 1014.1
20260905102346 25 208 0.0 0.0 0.00 0.00 0.00 87 1013.9
20260905101846 25 208 0.0 0.0 0.00 0.00 0.00 87 1013.8
20260905101344 25 208 0.0 0.0 0.00 0.00 0.00 87 1013.9
20260905100839 25 195 0.0 0.0 0.00 0.00 0.00 85 1013.7
20260905100335 25 186 0.0 0.0 0.00 0.00 0.00 87 1013.7
20260905095834 25 184 0.0 0.0 0.00 0.00 0.00 88 1013.9
20260905095329 25 187 0.0 0.0 0.00 0.00 0.00 87 1013.5
20260905094823 25 208 0.0 0.0 0.00 0.00 0.00 85 1013.7
20260905094319 25 208 1.6 1.6 0.00 0.00 0.00 88 1013.7
20260905093812 25 204 0.0 0.0 0.00 0.00 0.00 85 1013.8
20260905093308 26 203 0.0 0.0 0.00 0.00 0.00 80 1013.7
20260905092804 26 197 0.0 0.0 0.00 0.00 0.00 79 1013.9
20260905092259 26 197 0.0 0.0 0.00 0.00 0.00 79 1013.9
20260905091758 26 197 0.0 0.0 0.00 0.00 0.00 79 1013.8
20260905091253 26 197 0.0 0.0 0.00 0.00 0.00 78 1013.7
20260905090752 26 197 0.0 0.0 0.00 0.00 0.00 78 1013.9
20260905090248 26 197 0.0 0.0 0.00 0.00 0.00 78 1013.5
20260905085747 26 197 0.0 0.0 0.00 0.00 0.00 77 1013.5